Simultaneous Nadir Overpasses (SNOs) Predictions

Prediction of SNOs between GOES-16 and FY3D Satellite Orbit:

Table of predicted SNOs for the next 14.0 days since TLE Epoch: 10/26/2024
Index Date Time (GOES-16) GOES-16 Lat,Lon FY3D Lat,Lon Distance(km) Time Diff (sec)
1 10/26/2024 07:31:59 0.01, -75.20 -0.56, -72.75 279.55 80
2 10/27/2024 19:54:02 -0.01, -75.22 -0.66, -78.04 321.50 80
3 10/28/2024 19:38:02 -0.01, -75.23 0.41, -73.52 196.13 80
4 10/30/2024 07:59:57 0.00, -75.24 0.80, -78.77 402.57 80
5 10/31/2024 07:38:36 0.01, -75.25 -0.21, -74.24 115.26 80
6 11/01/2024 20:00:38 -0.01, -75.28 -0.96, -79.53 484.80 80
7 11/02/2024 19:44:38 -0.01, -75.29 0.06, -75.00 33.36 80
8 11/05/2024 07:47:52 0.01, -75.32 0.10, -75.73 46.39 80
9 11/06/2024 07:26:31 0.01, -75.33 -0.93, -71.20 471.74 80
10 11/07/2024 19:48:33 -0.00, -75.36 -0.27, -76.48 127.79 80
11 11/08/2024 19:32:32 -0.00, -75.38 0.77, -71.95 390.87 80
